DELTA 1 DEB, 7130

Orbit data source: Space-Track

DELTA 1 DEB, 7130 is space debris in SSO originally from a launch on Tue, 06 Nov 1973 UTC launched from the Air Force Western Test Range (AFWTR). Debris objects in space refer to the collection of defunct objects orbiting the Earth. Examples of debris include non-operational satellites, rocket bodies, and fragments generated from explosions, collisions, or faulty payload assembly.

Loading next visibility...
Identifier
7130, 1973-086CU
Orbit
SSO
Country
Flag of USUS
Related business
Manufacturer
Unknown
Mission
Spacecraft
Bus & Motor
Unknown
Mass
Unknown
Launch date (UTC)
1973-11-06 (52 years ago)
Launch vehicle
Unknown
Launch site
Air Force Western Test Range (AFWTR)
Object type
Payload
Rocket body
Debris
Shape & HBR
Unknown shape, 0.1 m
Radar Cross Section
Small (<0.1 m²)

Expand to show TLE details & history
Last TLE update: 12 hours ago

TLE from 12 hours ago
0 DELTA 1 DEB
1 07130U 73086CU  25300.18075037  .00006672  00000-0  11710-1 0  9998
2 07130 102.4380  20.4312 0052381 154.3601 263.4090 13.42962694430559
Epoch: 2025-10-27T04:20Z
TLE epoch observation values (Epoch: 2025-10-27T04:20:16.831Z)
Latitude
55.24371°
Longitude
-98.86061°
Altitude
1,111.919 km
Speed
7.299 km/s
True Right ascension
00h 07m 58s
True Declination
55° 05' 24"
Sunlit
Object was in full shadow at epoch
Visualization orbit readout
Latitude
Unknown
Longitude
Unknown
Altitude
Unknown
Speed
Unknown
Apparent Right ascension
Unknown
Apparent Declination
Unknown
Sunlit
N/A
Visualization observer readout
Local Sidereal Time
11:57:24
Azimuth
Unknown
Elevation
Unknown
Doppler factor
Unknown
Orbital elements
Apogee altitude
1,134.882 km
Perigee altitude
1,056.584 km
Semi-major axis
7,473.87 km
Eccentricity
0.00524
Inclination
102.438°
RAAN
20.4312°
Arg. of periapsis
154.3601°
True anomaly
262.81318°
Mean anomaly
263.409°
Eccentric anomaly
263.11105°
Mean motion
3.35911 °/min
Orbital period
107.17 mins
BSTAR
0.01171
Loading maneuver chart data...
Computing Atmospheric mass density...
Loading historical data...
Loading historical data...
Loading historical data...
Loading historical data...
Loading historical data...
Loading historical data...
Loading historical data...

Documentation

Showing up to 5 results
|